Lid_Strength_Index
2 2 2 2 1 1 2 2 1 1 1 1 1 1 1 1 1 1 0 0 -0 -0 -1 -0 -0 -0 2 7 7 3 -1 0 3 1 3 6 6 7 9 8 8 9 8 7 6 6 8
0 0 1 1 1 2 1 0 1 1 1 1 1 1 1 1 0 0 -0 -0 -1 -1 -1 -1 -1 -0 3 9 3 2 3 3 3 4 3 5 6 5 7 7 8 7 7 7 7 7 7
0 0 0 0 0 1 1 1 1 1 1 1 1 1 1 1 0 0 0 -0 -0 -0 -0 -1 -1 1 4 6 2 3 3 4 3 3 5 3 4 7 6 8 6 8 9 9 9 8 8
-0 0 -0 -0 -0 -0 1 1 1 1 1 1 1 1 1 1 0 0 -0 -0 -1 -0 -1 -1 -1 1 6 2 1 2 2 3 2 2 3 3 3 5 7 6 8 9 10 13 10 9 9
-0 -0 -0 -0 -0 -0 1 1 1 1 1 1 1 1 1 1 0 0 -0 -1 -1 -1 -1 -1 1 3 7 -1 3 1 1 3 3 3 4 3 3 6 7 10 11 11 14 13 12 9 9
-0 -0 -0 -0 -0 0 0 1 1 1 1 2 2 1 1 0 0 0 -1 -1 -0 0 0 0 1 6 4 5 2 2 2 1 3 5 6 5 6 9 10 11 16 15 14 13 13 10 9
-0 0 -0 -0 -0 -0 0 1 1 1 1 1 2 1 1 1 0 0 1 3 6 6 4 7 6 6 4 3 1 3 2 3 4 7 10 7 10 13 11 9 10 10 12 13 12 9 10
-0 0 0 0 -0 -0 0 1 1 1 1 1 1 1 1 0 0 0 2 5 5 5 8 4 4 4 3 3 6 4 3 7 7 10 8 10 13 9 8 9 10 11 12 13 12 10 11
0 1 0 0 0 -0 0 1 1 1 1 1 1 1 1 1 0 2 4 4 2 4 8 6 4 5 4 3 6 6 4 6 8 9 10 12 10 7 9 10 12 12 13 13 12 11 11
0 0 0 0 1 -0 0 1 1 1 1 1 1 1 1 0 3 4 4 2 2 3 12 9 7 5 4 4 7 3 3 5 7 10 10 10 8 9 10 11 10 14 10 11 12 13 16
-0 0 1 1 1 1 0 0 0 1 1 1 1 1 1 1 5 4 3 3 3 5 19 8 7 3 5 6 6 5 2 5 9 9 9 11 11 11 11 11 9 12 9 11 11 13 15
0 0 1 1 1 1 1 0 0 0 1 0 0 0 1 3 3 3 3 3 4 13 18 10 6 7 8 7 7 5 5 4 5 8 9 10 7 9 9 8 8 8 11 12 12 15 18
-0 0 1 1 1 1 1 1 0 1 0 -0 0 0 1 2 6 3 3 6 13 16 8 11 10 8 9 9 8 7 8 9 11 13 14 11 10 8 8 11 9 10 13 17 18 19 19
0 0 1 1 1 1 1 1 0 0 1 -0 0 -0 2 2 2 3 5 9 18 11 12 8 9 8 11 9 9 8 9 11 9 10 13 14 16 10 8 10 12 12 13 17 20 20 18
0 1 1 1 1 1 2 2 1 1 0 1 1 4 4 3 2 3 7 14 14 11 8 9 9 12 12 10 10 10 11 10 11 9 13 15 13 10 9 8 10 13 14 13 16 17 18
2 1 1 1 1 1 2 2 2 1 1 1 5 6 5 2 2 5 9 12 11 8 8 8 12 11 14 12 12 11 11 10 10 9 10 12 15 11 10 10 9 12 10 15 16 20 21
4 4 2 1 2 2 2 2 2 1 1 1 6 9 5 2 4 8 12 11 9 7 7 9 10 11 11 12 11 11 11 10 10 10 10 12 13 14 12 13 12 13 13 13 14 17 20
4 4 3 1 1 2 2 2 2 2 3 4 8 13 5 4 10 11 11 9 7 8 7 8 8 9 11 10 11 11 11 9 9 10 12 12 13 16 15 13 12 13 14 15 17 18 18
4 4 4 3 1 2 2 2 2 2 3 5 9 10 6 6 13 13 11 9 9 9 9 9 10 8 9 10 11 10 10 9 9 10 11 12 14 17 16 15 14 15 13 14 15 16 18
4 4 4 3 3 2 2 3 3 2 3 5 10 12 10 9 10 11 12 11 11 8 9 9 10 10 11 11 9 11 10 9 8 9 8 10 13 16 17 16 15 16 14 13 14 17 17
3 4 4 4 3 3 2 2 3 3 3 6 10 13 11 13 11 11 12 11 11 11 9 10 11 11 11 13 12 11 10 10 9 7 10 11 14 14 13 13 13 14 13 13 14 15 16
3 4 4 4 3 3 3 2 3 3 3 7 11 10 10 11 10 11 10 12 10 10 10 10 12 11 12 13 12 13 12 12 12 11 12 12 14 14 15 13 13 14 13 13 13 14 15
3 3 3 4 3 3 3 3 2 3 4 8 8 8 9 11 12 12 11 10 9 9 9 10 11 12 12 11 11 11 11 11 11 12 13 14 14 14 16 13 13 15 13 13 13 13 13
3 3 3 4 4 3 3 3 2 3 4 7 7 8 11 12 12 11 9 8 9 9 11 10 11 12 11 10 10 11 12 11 11 12 12 14 13 14 17 15 19 14 12 12 12 12 12
3 3 3 4 4 4 3 3 2 3 3 7 7 8 10 13 11 10 9 9 9 9 11 10 11 10 10 11 12 14 14 14 13 12 13 12 13 16 18 18 15 14 13 14 13 14 11
3 3 3 4 4 4 3 3 3 2 3 6 7 6 8 11 11 9 10 10 11 12 11 11 11 10 10 11 12 16 17 15 14 14 12 13 13 14 17 19 20 15 13 12 14 18 12
3 3 3 3 4 4 3 3 3 3 2 5 6 6 7 10 9 9 11 11 10 11 12 12 12 12 11 13 14 16 14 12 15 15 16 16 16 17 17 19 16 13 12 12 19 17 12
3 4 4 3 4 3 3 3 3 3 2 4 6 5 5 9 9 7 7 9 9 10 12 11 12 13 13 15 15 15 15 12 14 14 15 16 18 18 18 19 18 12 12 15 14 12 11
4 4 4 3 3 3 3 3 3 3 3 3 7 5 4 6 7 6 6 6 6 7 9 10 12 12 12 14 14 13 13 14 14 16 14 16 14 15 15 15 12 12 13 12 10 11 12